Afton Municipal Airport, WY

2:56 AM MST on November 15, 2019 (GMT -0700)
Afton Municipal

Weather History for KAFO - September, 2019

Change the Weather History Date:

Saturday, September 28, 2019

  Actual Average Record
Temperature  
Mean Temperature 40 °F -  
Max Temperature 44 °F 66 °F 77 °F (2016)
Min Temperature 37 °F 29 °F 26 °F (2017)
Degree Days  
Heating Degree Days 24    
Moisture  
Dew Point 39 °F    
Average Humidity 93    
Maximum Humidity 100    
Minimum Humidity 70    
Precipitation  
Precipitation 0.00 in - - ()
Sea Level Pressure  
Sea Level Pressure 29.71 in    
Wind  
Wind Speed 3 mph ()    
Max Wind Speed 10 mph    
Max Gust Speed 17 mph    
Visibility 8.1 miles    
Events Rain , Thunderstorm    
Averages and records for this station are not official NWS values.
T = Trace of Precipitation, MM = Missing Value Source: Averaged Metar Reports

Daily Weather History Graph

Daily Weather History Graph

Search for Another Location

Airport or City:

Astronomy

Sep. 28, 2019 Rise Set
Actual Time 7:17 AM MDT 7:10 PM MDT
Civil Twilight 6:49 AM MDT 7:38 PM MDT
Nautical Twilight 6:16 AM MDT 8:11 PM MDT
Astronomical Twilight 5:43 AM MDT 8:44 PM MDT
Moon 6:56 AM MDT (9/28) 7:39 PM MDT (9/28)
Length of Visible Light 12h 49m
Length of Day
11h 53m
Waning Crescent, 0% of the Moon is Illuminated
Sep 28
Waning Crescent
Sep 28
New
Oct 5
First Quarter
Oct 13
Full
Oct 21
Last Quarter

Hourly Weather History & Observations

Time (MDT) Temp. Windchill Dew Point Humidity Pressure Visibility Wind Dir Wind Speed Gust Speed Precip Events Conditions
12:15 AM 41.0 °F 39.0 °F 33.8 °F 76% 29.78 in 10.0 mi SW 3.5 mph - N/A   Overcast
12:35 AM 39.2 °F - 33.8 °F 81% 29.78 in 10.0 mi Calm Calm - N/A   Mostly Cloudy
12:55 AM 41.0 °F - 33.8 °F 76% 29.78 in 10.0 mi Calm Calm - N/A   Overcast
1:15 AM 41.0 °F - 33.8 °F 76% 29.78 in 10.0 mi Calm Calm - N/A   Overcast
1:35 AM 42.8 °F - 33.8 °F 70% 29.79 in 10.0 mi Calm Calm - N/A   Overcast
1:55 AM 42.8 °F 41.1 °F 33.8 °F 70% 29.80 in 10.0 mi SSE 3.5 mph - N/A   Drizzle
2:15 AM 42.8 °F 38.0 °F 35.6 °F 76% 29.81 in 10.0 mi South 8.1 mph 17.3 mph N/A Rain Rain
2:35 AM 44.6 °F 43.1 °F 39.2 °F 81% 29.80 in 10.0 mi South 3.5 mph - N/A Rain Rain
2:55 AM 42.8 °F - 39.2 °F 87% 29.78 in 10.0 mi Calm Calm - N/A Rain Light Rain
3:15 AM 42.8 °F - 39.2 °F 87% 29.77 in 10.0 mi Calm Calm - N/A Rain Light Rain
3:35 AM 42.8 °F - 41.0 °F 93% 29.78 in 10.0 mi Calm Calm - N/A Rain Light Rain
3:55 AM 42.8 °F 39.3 °F 41.0 °F 93% 29.77 in 7.0 mi NE 5.8 mph - N/A Rain Rain
4:15 AM 42.8 °F - 41.0 °F 93% 29.75 in 10.0 mi Calm Calm - N/A Rain Light Rain
4:35 AM 41.0 °F 35.8 °F 39.2 °F 93% 29.77 in 10.0 mi NW 8.1 mph - N/A Rain Rain
4:55 AM 41.0 °F 38.0 °F 39.2 °F 93% 29.76 in 7.0 mi NNE 4.6 mph - N/A Rain Rain
5:15 AM 41.0 °F 38.0 °F 39.2 °F 93% 29.74 in 7.0 mi North 4.6 mph - N/A Rain Rain
5:35 AM 41.0 °F 39.0 °F 41.0 °F 100% 29.76 in 5.0 mi NNW 3.5 mph - N/A Rain Heavy Rain
5:55 AM 41.0 °F 39.0 °F 41.0 °F 100% 29.75 in 7.0 mi North 3.5 mph - N/A Rain Light Rain
6:15 AM 41.0 °F 37.1 °F 41.0 °F 100% 29.75 in 7.0 mi NW 5.8 mph - N/A Rain Light Rain
6:35 AM 41.0 °F 38.0 °F 41.0 °F 100% 29.73 in 10.0 mi NW 4.6 mph - N/A Rain Light Rain
6:55 AM 41.0 °F - 41.0 °F 100% 29.70 in 10.0 mi Calm Calm - N/A Rain Light Rain
7:15 AM 41.0 °F 35.2 °F 41.0 °F 100% 29.72 in 7.0 mi WNW 9.2 mph - N/A Rain Light Rain
7:35 AM 41.0 °F 36.4 °F 41.0 °F 100% 29.72 in 10.0 mi North 6.9 mph 10.4 mph N/A Rain Rain
7:55 AM 41.0 °F 37.1 °F 41.0 °F 100% 29.74 in 5.0 mi North 5.8 mph - N/A Rain Heavy Rain
8:15 AM 41.0 °F 39.0 °F 41.0 °F 100% 29.74 in 7.0 mi NNE 3.5 mph - N/A Rain Light Rain
8:35 AM 41.0 °F 39.0 °F 41.0 °F 100% 29.73 in 10.0 mi ENE 3.5 mph - N/A Rain Light Rain
8:55 AM 41.0 °F 36.4 °F 41.0 °F 100% 29.74 in 10.0 mi West 6.9 mph - N/A Thunderstorm Overcast
9:15 AM 41.0 °F 39.0 °F 41.0 °F 100% 29.75 in 7.0 mi NW 3.5 mph - N/A Rain Rain
9:35 AM 41.0 °F 38.0 °F 41.0 °F 100% 29.75 in 7.0 mi East 4.6 mph - N/A Rain Rain
9:55 AM 42.8 °F - 41.0 °F 93% 29.74 in 10.0 mi Calm Calm - N/A Rain Rain
10:15 AM 42.8 °F - 41.0 °F 93% 29.73 in 4.0 mi Calm Calm - N/A Rain Light Rain
10:35 AM 42.8 °F 41.1 °F 41.0 °F 93% 29.74 in 10.0 mi WSW 3.5 mph - N/A   Overcast
10:55 AM 42.8 °F - 41.0 °F 93% 29.72 in 10.0 mi Calm Calm - N/A Thunderstorm Drizzle
11:15 AM 42.8 °F 41.1 °F 41.0 °F 93% 29.71 in 10.0 mi South 3.5 mph - N/A Rain Light Rain
11:35 AM 42.8 °F 38.0 °F 41.0 °F 93% 29.68 in 7.0 mi SSE 8.1 mph - N/A Rain Light Rain
11:55 AM 42.8 °F 38.0 °F 41.0 °F 93% 29.69 in 10.0 mi SSW 8.1 mph - N/A   Overcast
12:15 PM 42.8 °F 40.1 °F 41.0 °F 93% 29.70 in 7.0 mi NNE 4.6 mph - N/A Rain Heavy Rain
12:35 PM 44.6 °F 43.1 °F 42.8 °F 93% 29.69 in 10.0 mi NE 3.5 mph - N/A   Overcast
12:55 PM 44.6 °F 42.2 °F 41.0 °F 87% 29.68 in 10.0 mi South 4.6 mph - N/A   Overcast
1:15 PM 44.6 °F - 41.0 °F 87% 29.65 in 10.0 mi Calm Calm - N/A   Overcast
1:35 PM 44.6 °F 42.2 °F 41.0 °F 87% 29.65 in 10.0 mi WNW 4.6 mph - N/A Thunderstorm Overcast
1:55 PM 42.8 °F 39.3 °F 41.0 °F 93% 29.65 in 7.0 mi NNW 5.8 mph - N/A Rain Rain
2:15 PM 42.8 °F 38.6 °F 42.8 °F 100% 29.66 in 10.0 mi NNE 6.9 mph - N/A Rain Rain
2:35 PM 42.8 °F 38.6 °F 42.8 °F 100% 29.65 in 4.0 mi NNE 6.9 mph - N/A Rain , Thunderstorm Heavy Thunderstorms and Rain
2:55 PM 42.8 °F 41.1 °F 42.8 °F 100% 29.68 in 10.0 mi North 3.5 mph - N/A Rain Rain
3:15 PM 42.8 °F 41.1 °F 42.8 °F 100% 29.68 in 4.0 mi North 3.5 mph - N/A Rain Rain
3:35 PM 42.8 °F 40.1 °F 41.0 °F 93% 29.68 in 7.0 mi NW 4.6 mph - N/A Rain Light Rain
3:55 PM 42.8 °F 40.1 °F 41.0 °F 93% 29.69 in 10.0 mi WNW 4.6 mph - N/A   Light Drizzle
4:15 PM 42.8 °F - 41.0 °F 93% 29.70 in 10.0 mi Calm Calm - N/A Rain Light Rain
4:35 PM 42.8 °F 41.1 °F 41.0 °F 93% 29.68 in 5.0 mi NNE 3.5 mph - N/A Rain Rain
4:55 PM 42.8 °F 41.1 °F 41.0 °F 93% 29.67 in 5.0 mi NNW 3.5 mph - N/A Rain Rain
5:15 PM 41.0 °F - 41.0 °F 100% 29.68 in 2.5 mi Calm Calm - N/A Rain Heavy Rain
5:35 PM 41.0 °F - 41.0 °F 100% 29.68 in 5.0 mi Calm Calm - N/A Rain Rain
5:55 PM 41.0 °F 35.2 °F 37.4 °F 87% 29.68 in 7.0 mi East 9.2 mph - N/A Rain Rain
6:15 PM 41.0 °F 37.1 °F 37.4 °F 87% 29.71 in 5.0 mi ENE 5.8 mph - N/A Rain Rain
6:35 PM 39.2 °F 33.6 °F 37.4 °F 93% 29.70 in 3.0 mi ENE 8.1 mph - N/A   Overcast
6:55 PM 41.0 °F - 37.4 °F 87% 29.69 in 5.0 mi Calm Calm - N/A Rain Rain
7:15 PM 39.2 °F 37.0 °F 35.6 °F 87% 29.69 in 10.0 mi SE 3.5 mph - N/A Rain Rain
7:35 PM 39.2 °F - 35.6 °F 87% 29.68 in 10.0 mi Calm Calm - N/A Rain Light Rain
7:55 PM 37.4 °F - 37.4 °F 100% 29.68 in 7.0 mi North - - N/A Rain Rain
8:15 PM 37.4 °F - 37.4 °F 100% 29.67 in 7.0 mi North - - N/A Rain Light Rain
8:35 PM 37.4 °F 34.9 °F 37.4 °F 100% 29.65 in 10.0 mi NNW 3.5 mph - N/A Rain Light Rain
8:55 PM 37.4 °F - 37.4 °F 100% 29.70 in 10.0 mi North - - N/A Rain Light Rain
9:15 PM 37.4 °F 34.9 °F 37.4 °F 100% 29.68 in 7.0 mi ENE 3.5 mph - N/A Rain Light Rain
9:35 PM 37.4 °F 30.3 °F 37.4 °F 100% 29.68 in 10.0 mi North 10.4 mph - N/A Rain Light Rain
9:55 PM 37.4 °F 33.8 °F 37.4 °F 100% 29.70 in 7.0 mi North 4.6 mph - N/A Rain Rain
10:15 PM 37.4 °F - 37.4 °F 100% 29.68 in 7.0 mi Calm Calm - N/A Rain Rain
10:35 PM 37.4 °F - 37.4 °F 100% 29.67 in 7.0 mi North - - N/A Rain Light Rain
10:55 PM 37.4 °F - 37.4 °F 100% 29.65 in 7.0 mi North - - N/A Rain Rain
11:15 PM 37.4 °F - 37.4 °F 100% 29.66 in 5.0 mi North - - N/A Rain Rain
11:35 PM 37.4 °F - 37.4 °F 100% 29.64 in 10.0 mi North - - N/A Rain Rain
11:55 PM 37.4 °F - 37.4 °F 100% 29.64 in 10.0 mi North - - N/A Rain Light Rain